Location: Bratsk-Energetik
(56.3300°N, 101.7600°E)
Time: 22:41:19
(UTC+08:00)

ISS - Pass Details

Date: 23 May 2017
Orbit: 401 x 407 km, 51.6° (Epoch: 23 September)

Event Time Altitude Azimuth Distance (km) Brightness Sun altitude
Exits shadow 01:13:37 16° 225° (SW) 1,159 -1.9 -13.1°
Drops below altitude 10° 01:18:44 10° 104° (ESE) 1,487 -1.1 -13.1°
Enters shadow 02:34:07 -30° 273° (W) 7,233 2.4 -11.1°
Maximum altitude 02:51:53 34° 189° (S) 709 -3.1 -10.2°
